[[{"header":{"parameterUnit":"m.s-1","parameterCategory":2,"la1":30.2991,"la2":30.254,"lo1":-89.0895,"lo2":-89.0444,"dy":0.0017,"dx":0.0017,"nx":28,"ny":28,"refTime":"2024-07-03T09:00:00:Z","depth":"0","parameterNumber":2,"parameterNumberName":"U-component_of_CURRENTS"},"data":[0,0,0,0,0,0,0,0,0,0,0,0,0,0,0,0,0,0,0,0,0,0,0,0,0,0,0,0,0,0,0,0,0,0,0,0,0,0,0,0,0,0,0,0,0,0,0,0,0,0,0,0,0,0,0,0,0,0,0.42,0.4203,0,0.4353,0.4353,0.4354,0.4321,0.4319,0.4318,0.4316,0.425,0.425,0.425,0,0,0,0,0,0,0,0,0,0,0,0,0,0.3889,0.3893,0.4199,0.4203,0.4206,0.4353,0.4353,0.4354,0.4321,0.4319,0.4317,0.4316,0.425,0.425,0.425,0,0,0,0,0,0,0,0,0,0,0,0,0,0.4018,0.3895,0.4199,0.4218,0.4222,0.4352,0.4353,0.4354,0.4322,0.4319,0.4317,0.4315,0.425,0.425,0.4249,0.4293,0,0,0.4248,0.4248,0,0,0,0,0,0,0,0,0.401,0.4027,0.4212,0.4217,0.4222,0.4328,0.4221,0.4328,0.4322,0.4269,0.4316,0.4314,0.4267,0.4265,0.4282,0.429,0.4287,0.4248,0.4248,0.4248,0.4247,0,0,0,0,0,0,0,0.4001,0.4021,0.4246,0.4216,0.4222,0.4223,0.4237,0.4241,0.4264,0.4273,0.4275,0.4315,0.4266,0.4283,0.428,0.4286,0.4248,0.4248,0.4247,0.4247,0.4291,0.4293,0,0,0,0,0,0,0.4014,0.4013,0.4241,0.4252,0.4124,0.4232,0.4246,0.4285,0.4269,0.427,0.4317,0.4313,0.4284,0.428,0.4277,0.432,0.4248,0.4247,0.4247,0.429,0.4292,0.4293,0,0,0,0,0,0,0.4007,0.4033,0.4235,0.4146,0.4174,0.4241,0.4283,0.4289,0.4313,0.4307,0.43,0.4337,0.4282,0.4278,0.4281,0.4317,0.4247,0.4246,0.4288,0.429,0.4292,0.4411,0,0,0,0,0,0,0.3997,0.4029,0.406,0.4148,0.418,0.4309,0.4287,0.4294,0.4349,0.4344,0.4323,0.4314,0.428,0.4282,0.428,0.4315,0.4246,0.4286,0.4289,0.4292,0.4405,0.4417,0.4427,0,0,0,0,0,0.3985,0.4046,0.406,0.4088,0.422,0.4312,0.4326,0.4355,0.4352,0.4366,0.4351,0.4315,0.4297,0.4283,0.4281,0.4316,0.4285,0.4288,0.4292,0.44,0.4415,0.4427,0,0,0,0,0,0,0.3927,0.4053,0.4068,0.4163,0.4229,0.4311,0.4348,0.4373,0.438,0.4367,0.434,0.4332,0.4352,0.4318,0.4303,0.4335,0.4283,0.4286,0.4367,0.438,0.4391,0.4427,0.4246,0,0,0,0,0,0.3934,0.4008,0.4109,0.4181,0.4217,0.4283,0.4328,0.4349,0.4381,0.4383,0.4381,0.4367,0.4368,0.4358,0.4353,0.4374,0.4424,0.4392,0.4403,0.4412,0.444,0.4556,0.4582,0.4304,0.4304,0.4304,0,0,0.3937,0.4015,0.4058,0.4174,0.4223,0.4299,0.4299,0.4371,0.4424,0.4373,0.4427,0.4413,0.4385,0.4408,0.4412,0.4379,0.4522,0.4417,0.4425,0.4448,0.4563,0.459,0.4615,0.4306,0.4306,0.4305,0,0,0.3985,0.4039,0.4116,0.4172,0.4269,0.4316,0.4342,0.4429,0.4447,0.4494,0.4481,0.4497,0.4488,0.4496,0.4491,0.4561,0.4585,0.4547,0.4625,0.4738,0.4763,0.4785,0.4913,0.4946,0.4542,0.4542,0.4542,0,0.3983,0.4102,0.4147,0.4225,0.4296,0.4328,0.4418,0.4447,0.4522,0.4555,0.4509,0.4565,0.4536,0.46,0.4615,0.4591,0.4666,0.4579,0.4758,0.478,0.4802,0.4927,0.4962,0.4548,0.4548,0.4547,0.4546,0,0.4095,0.4176,0.4223,0.4338,0.4397,0.4483,0.4541,0.4583,0.4604,0.4643,0.4705,0.4683,0.472,0.4707,0.4676,0.4811,0.4823,0.4771,0.4734,0.4838,0.4962,0.4997,0.4557,0.4555,0.4553,0.4551,0,0,0.4164,0.4284,0.4309,0.4359,0.4474,0.4534,0.4612,0.4716,0.4772,0.4797,0.4894,0.4891,0.4896,0.4893,0.4874,0.4949,0.5159,0.4929,0.4932,0.5076,0.545,0.5366,0.5395,0.5151,0.5157,0.5162,0.5489,0,0.4258,0.4401,0.4456,0.4585,0.4661,0.4703,0.4773,0.484,0.4879,0.4962,0.4964,0.5028,0.4961,0.4987,0.5062,0.5133,0.5251,0.5077,0.5311,0.5319,0.5247,0.5431,0.5171,0.5432,0.5522,0.5528,0.5532,0,0.4382,0.4463,0.4598,0.4702,0.4742,0.4806,0.4925,0.4993,0.5082,0.5111,0.5177,0.5191,0.5315,0.5225,0.5448,0.5349,0.5432,0.5473,0.5486,0.5391,0.5298,0.5335,0.5491,0.5289,0.5585,0.5581,0.5577,0,0.442,0.4572,0.4677,0.4719,0.4832,0.4885,0.4951,0.5037,0.5092,0.5226,0.5284,0.541,0.5485,0.5608,0.5687,0.5606,0.5935,0.5826,0.5845,0.584,0.5655,0.5623,0.5653,0.6032,0.6031,0.603,0.6029,0,0.452,0.4606,0.4688,0.474,0.4844,0.4911,0.5013,0.5083,0.5189,0.5266,0.5367,0.5452,0.5588,0.5753,0.5813,0.596,0.6058,0.5928,0.5938,0.5687,0.5655,0.5492,0.5415,0.6042,0.604,0.6037,0.6035,0,0.4546,0.4611,0.4713,0.4824,0.4853,0.4918,0.5023,0.5079,0.5202,0.5316,0.5374,0.5558,0.5763,0.5905,0.6128,0.6119,0.6086,0.6286,0.5991,0.5957,0.5696,0.5635,0.5583,0.5431,0.6362,0.6362,0.6362,0,0.4576,0.463,0.4735,0.4764,0.4812,0.4899,0.494,0.5062,0.5121,0.5347,0.5402,0.5655,0.5767,0.6092,0.6161,0.6333,0.6117,0.6181,0.5947,0.571,0.5653,0.5434,0.5293,0.5778,0.5773,0.5769,0.5766,0,0.4609,0.4633,0.4688,0.4745,0.4788,0.4844,0.492,0.4958,0.5103,0.5211,0.5358,0.548,0.5786,0.5819,0.6062,0.6112,0.584,0.6103,0.5937,0.5289,0.4979,0.4823,0.5554,0.5732,0.5735,0.5738,0.574,0.5741,0.4597,0.462,0.4654,0.4697,0.4735,0.474,0.472,0.4806,0.4867,0.4961,0.5193,0.5276,0.5449,0.5714,0.5749,0.5608,0.5633,0.542,0.541,0.5243,0.4939,0.5609,0.572,0.5723,0.5726,0.5728,0.5731,0,0.4539,0.4552,0.4599,0.4601,0.4574,0.4637,0.4652,0.459,0.4574,0.4743,0.4843,0.4905,0.4957,0.506,0.5082,0.4938,0.4712,0.4802,0.4412,0.4342,0.5017,0.4823,0.4644,0.4644,0.4644,0.4645,0.4645,0.4645,0.45,0.4486,0.4497,0.4413,0.4406,0.4295,0.4255,0.4201,0.4248,0.4198,0.4195,0.432,0.4511,0.4603,0.4453,0.4364,0.4033,0.3877,0.3908,0.4337,0.439,0.444,0.4235,0.3937,0.3936,0.2995,0.2988,0.2982]},{"header":{"parameterUnit":"m.s-1","parameterCategory":2,"la1":30.2991,"la2":30.254,"lo1":-89.0895,"lo2":-89.0444,"dy":0.0017,"dx":0.0017,"nx":28,"ny":28,"refTime":"2024-07-03T09:00:00:Z","depth":"0","parameterNumber":3,"parameterNumberName":"V-component_of_CURRENTS"},"data":[0,0,0,0,0,0,0,0,0,0,0,0,0,0,0,0,0,0,0,0,0,0,0,0,0,0,0,0,0,0,0,0,0,0,0,0,0,0,0,0,0,0,0,0,0,0,0,0,0,0,0,0,0,0,0,0,0,0,0.008,0.008,0,-0.0028,-0.003,-0.0031,-0.0117,-0.0117,-0.0117,-0.0117,-0.026,-0.0264,-0.0267,0,0,0,0,0,0,0,0,0,0,0,0,0,0.014,0.0139,0.008,0.008,0.0079,-0.0027,-0.003,-0.0032,-0.0117,-0.0117,-0.0117,-0.0117,-0.0259,-0.0263,-0.0268,0,0,0,0,0,0,0,0,0,0,0,0,0,0.0073,0.0138,0.008,0.003,0.0025,-0.0027,-0.003,-0.0033,-0.0117,-0.0117,-0.0117,-0.0117,-0.0257,-0.0263,-0.0268,-0.0301,0,0,-0.0285,-0.0288,0,0,0,0,0,0,0,0,0.0077,0.007,0.0038,0.0034,0.0028,-0.0051,-0.0061,-0.0121,-0.0117,-0.0072,-0.0117,-0.0117,-0.0188,-0.0199,-0.0231,-0.0308,-0.0314,-0.0286,-0.0289,-0.0292,-0.0293,0,0,0,0,0,0,0,0.0082,0.0074,0.0029,0.0038,0.0032,-0.0011,-0.0021,-0.0073,-0.0136,-0.0076,-0.0081,-0.0079,-0.0192,-0.0225,-0.0235,-0.0316,-0.0286,-0.0291,-0.0294,-0.0296,-0.0404,-0.0403,0,0,0,0,0,0,0.0116,0.0078,0.0032,0.0026,0.0063,-0.0011,-0.0023,-0.0033,-0.0134,-0.0147,-0.0078,-0.0082,-0.0216,-0.0228,-0.024,-0.0247,-0.0292,-0.0297,-0.03,-0.0404,-0.0403,-0.0403,0,0,0,0,0,0,0.0118,0.0113,0.0037,0.0057,0.0046,-0.0011,-0.0022,-0.0035,-0.0058,-0.0134,-0.0149,-0.0086,-0.0216,-0.0232,-0.0281,-0.0254,-0.0299,-0.0304,-0.0405,-0.0404,-0.0403,-0.0284,0,0,0,0,0,0,0.012,0.0113,0.0114,0.006,0.0047,0.0018,-0.0022,-0.0037,-0.0053,-0.0059,-0.0146,-0.016,-0.0218,-0.0272,-0.0286,-0.0263,-0.0309,-0.0405,-0.0404,-0.0403,-0.0289,-0.0279,-0.0271,0,0,0,0,0,0.0122,0.0137,0.0114,0.0109,0.005,0.002,0.0007,-0.0039,-0.0052,-0.0061,-0.012,-0.0157,-0.0275,-0.0276,-0.0293,-0.027,-0.0406,-0.0405,-0.0403,-0.0293,-0.0281,-0.0272,0,0,0,0,0,0,0.0163,0.0128,0.0103,0.0105,0.0069,0.0009,0.001,-0.0026,-0.0081,-0.0079,-0.016,-0.0179,-0.0215,-0.0259,-0.0258,-0.0299,-0.0343,-0.0345,-0.0253,-0.0243,-0.0234,-0.0158,-0.0314,0,0,0,0,0,0.0175,0.0176,0.0129,0.0132,0.0124,0.0067,0.0051,0.002,-0.0029,-0.0053,-0.0118,-0.0176,-0.0226,-0.0245,-0.0308,-0.0326,-0.0318,-0.0321,-0.0312,-0.0304,-0.0254,-0.0224,-0.0206,-0.0399,-0.0399,-0.0399,0,0,0.0191,0.0177,0.0174,0.0141,0.0114,0.0108,0.0055,0.0047,0.0044,-0.0058,-0.0087,-0.0158,-0.0229,-0.0259,-0.0276,-0.0288,-0.0249,-0.0303,-0.0295,-0.0249,-0.022,-0.0201,-0.0184,-0.0398,-0.0398,-0.0399,0,0,0.0243,0.0217,0.0237,0.0214,0.0192,0.0154,0.016,0.0102,0.0081,0.0037,-0.0028,-0.0066,-0.0166,-0.0191,-0.0219,-0.0193,-0.0215,-0.0227,-0.0106,-0.0078,-0.006,-0.0045,-0.0015,0.0002,-0.0208,-0.0207,-0.0207,0,0.0265,0.0282,0.0237,0.0252,0.0256,0.0185,0.021,0.0171,0.01,0.0113,0.0046,-0.0042,-0.012,-0.0103,-0.0108,-0.0167,-0.0155,-0.014,-0.0061,-0.0046,-0.0031,-0.0005,0.0013,-0.0202,-0.0202,-0.0203,-0.0203,0,0.0329,0.0338,0.0356,0.0348,0.0338,0.0352,0.0306,0.0296,0.0253,0.0218,0.0209,0.0101,0.0074,0.0023,-0.0043,0.0023,-0.0004,-0.0063,-0.0075,-0.0004,0.0018,0.0035,-0.0193,-0.0195,-0.0197,-0.0199,0,0,0.0406,0.0401,0.041,0.0438,0.04,0.0413,0.0421,0.0429,0.0483,0.0383,0.0453,0.0332,0.0298,0.0267,0.0187,0.0197,0.0271,0.0122,0.0121,0.0177,0.035,0.0281,0.0292,0.0228,0.0232,0.0235,0.0324,0,0.0477,0.0536,0.0509,0.0572,0.0606,0.0564,0.059,0.0589,0.0567,0.0603,0.0531,0.0537,0.0385,0.0392,0.0376,0.0296,0.0322,0.0254,0.0253,0.0254,0.0205,0.0312,0.0251,0.0322,0.034,0.0343,0.0345,0,0.0569,0.0597,0.067,0.0726,0.0742,0.0765,0.0847,0.0858,0.0881,0.0874,0.0872,0.0808,0.0808,0.0666,0.0615,0.058,0.0498,0.0424,0.0424,0.0344,0.0218,0.0252,0.0351,0.0058,0.037,0.0368,0.0366,0,0.0686,0.0731,0.0804,0.0813,0.084,0.0899,0.0925,0.0957,0.1018,0.1073,0.1136,0.1087,0.1113,0.099,0.0812,0.0735,0.0766,0.0634,0.0508,0.0501,0.0446,0.0428,0.0289,0.0647,0.0647,0.0647,0.0647,0,0.079,0.0856,0.0873,0.0914,0.1034,0.1026,0.1164,0.1185,0.1263,0.138,0.1301,0.1404,0.1201,0.1166,0.0952,0.0804,0.0882,0.0583,0.054,0.0479,0.0464,0.0199,0.007,0.065,0.0649,0.0649,0.0648,0,0.09,0.0905,0.0996,0.1054,0.1088,0.1179,0.1294,0.1393,0.1461,0.1622,0.1663,0.169,0.1653,0.1434,0.1279,0.1026,0.0704,0.0786,0.0728,0.0675,0.0213,0.0095,0.0002,-0.0101,0.0654,0.0653,0.0653,0,0.0953,0.101,0.1095,0.1154,0.1184,0.1307,0.1396,0.1479,0.159,0.1801,0.1902,0.1959,0.2009,0.1757,0.1348,0.1021,0.0758,0.0724,0.0542,0.0232,0.0069,-0.0028,-0.0116,0.0515,0.0514,0.0512,0.0511,0,0.1045,0.1074,0.1133,0.1251,0.1354,0.1482,0.1623,0.1746,0.1882,0.2061,0.2298,0.2382,0.2164,0.1847,0.1388,0.1096,0.0503,0.068,0.0388,0.0,-0.0135,-0.0271,0.0404,0.0498,0.0499,0.05,0.0501,0.0502,0.1099,0.1158,0.123,0.1346,0.1468,0.1638,0.1772,0.1955,0.2192,0.2491,0.2559,0.2732,0.2224,0.16,0.1201,0.0367,0.0429,0.0067,-0.0029,-0.0083,-0.025,0.0399,0.0407,0.0408,0.0409,0.0409,0.041,0,0.1144,0.1208,0.1318,0.146,0.16,0.166,0.1903,0.2074,0.2375,0.268,0.2904,0.2698,0.2059,0.1368,0.0294,-0.026,-0.0464,-0.0559,-0.0734,-0.0774,-0.0176,-0.026,-0.0431,-0.0431,-0.043,-0.043,-0.043,-0.0429,0.1172,0.1263,0.1319,0.1533,0.1649,0.1868,0.2016,0.2306,0.2559,0.2915,0.3014,0.305,0.2432,0.0608,-0.0671,-0.0961,-0.1293,-0.1358,-0.1485,-0.1153,-0.1104,-0.1058,-0.1172,-0.1531,-0.1532,-0.2075,-0.2081,-0.2085]}],[{"header":{"parameterUnit":"m.s-1","parameterCategory":2,"la1":30.2991,"la2":30.254,"lo1":-89.0895,"lo2":-89.0444,"dy":0.0017,"dx":0.0017,"nx":28,"ny":28,"refTime":"2024-07-03T09:00:00:Z","depth":"2","parameterNumber":2,"parameterNumberName":"U-component_of_CURRENTS"},"data":[0,0,0,0,0,0,0,0,0,0,0,0,0,0,0,0,0,0,0,0,0,0,0,0,0,0,0,0,0,0,0,0,0,0,0,0,0,0,0,0,0,0,0,0,0,0,0,0,0,0,0,0,0,0,0,0,0,0,0.3125,0.3126,0,0.3129,0.3128,0.3127,0.3177,0.3179,0.3181,0.3184,0.322,0.3219,0.3218,0,0,0,0,0,0,0,0,0,0,0,0,0,0.2983,0.2986,0.3125,0.3126,0.3127,0.3129,0.3128,0.3127,0.3176,0.3179,0.3182,0.3185,0.3221,0.3219,0.3218,0,0,0,0,0,0,0,0,0,0,0,0,0,0.301,0.2986,0.3125,0.3161,0.3165,0.3129,0.3128,0.3126,0.3176,0.3179,0.3183,0.3186,0.3221,0.3219,0.3217,0.3135,0,0,0.3212,0.3211,0,0,0,0,0,0,0,0,0.3009,0.3014,0.3155,0.3159,0.3163,0.3166,0.3092,0.3135,0.3175,0.3159,0.3184,0.3188,0.321,0.321,0.3185,0.3137,0.3138,0.3212,0.321,0.321,0.3209,0,0,0,0,0,0,0,0.3007,0.3013,0.3114,0.3156,0.3161,0.3117,0.3125,0.3098,0.3156,0.316,0.3167,0.3186,0.3212,0.3186,0.3186,0.3139,0.3212,0.321,0.3209,0.3208,0.3316,0.332,0,0,0,0,0,0,0.3037,0.3013,0.3114,0.3116,0.3107,0.3119,0.3127,0.3152,0.3156,0.3163,0.3183,0.3188,0.3188,0.3188,0.3188,0.3361,0.321,0.3208,0.3207,0.3313,0.3317,0.3322,0,0,0,0,0,0,0.3034,0.3046,0.3114,0.3073,0.3081,0.312,0.3146,0.315,0.3237,0.3174,0.3181,0.3279,0.319,0.3191,0.325,0.3354,0.3207,0.3205,0.3308,0.3314,0.332,0.3535,0,0,0,0,0,0,0.303,0.3045,0.3095,0.3076,0.3085,0.3206,0.3144,0.3148,0.3241,0.3251,0.3257,0.3257,0.3193,0.3254,0.3248,0.3348,0.3204,0.3303,0.3311,0.3318,0.3523,0.3547,0.3569,0,0,0,0,0,0.3024,0.3064,0.3097,0.3112,0.3146,0.3212,0.3215,0.3241,0.3245,0.3322,0.3299,0.3263,0.3299,0.3254,0.3248,0.335,0.3299,0.3308,0.3317,0.3512,0.3543,0.3568,0,0,0,0,0,0,0.3028,0.3073,0.311,0.3166,0.3248,0.3228,0.3254,0.3305,0.3341,0.3304,0.3292,0.3292,0.3369,0.3336,0.3289,0.3405,0.3302,0.331,0.3453,0.348,0.3503,0.3448,0.3202,0,0,0,0,0,0.3056,0.3089,0.3165,0.3213,0.3244,0.3274,0.3309,0.3321,0.3336,0.3358,0.3353,0.3343,0.3377,0.3419,0.3383,0.3457,0.3442,0.3526,0.3549,0.3569,0.3522,0.3617,0.3644,0.3351,0.3351,0.3351,0,0,0.3056,0.3093,0.311,0.3217,0.3231,0.33,0.3302,0.3337,0.3394,0.3345,0.3387,0.3396,0.3405,0.3465,0.3505,0.3476,0.3661,0.358,0.3597,0.3538,0.3629,0.3657,0.3682,0.3357,0.3356,0.3355,0,0,0.3061,0.3118,0.3157,0.323,0.3297,0.332,0.3381,0.3402,0.3425,0.3468,0.3461,0.3527,0.3554,0.3587,0.3617,0.375,0.3751,0.3803,0.3911,0.4008,0.4032,0.4052,0.414,0.4167,0.3852,0.3852,0.3853,0,0.3084,0.3149,0.3189,0.3257,0.332,0.3366,0.3445,0.3463,0.3505,0.3532,0.35,0.3587,0.3586,0.3749,0.3798,0.3797,0.3868,0.3814,0.4038,0.4058,0.4075,0.4159,0.4185,0.3864,0.3862,0.3861,0.386,0,0.3131,0.3202,0.3219,0.333,0.3414,0.3465,0.3525,0.3572,0.3587,0.3613,0.3719,0.3712,0.38,0.3851,0.3858,0.4048,0.4066,0.4033,0.3967,0.4118,0.4197,0.4221,0.388,0.3876,0.3873,0.387,0,0,0.3132,0.3242,0.3267,0.3321,0.3451,0.3507,0.359,0.371,0.379,0.3791,0.3924,0.3971,0.3998,0.4031,0.4103,0.4189,0.4392,0.4201,0.4201,0.4284,0.4656,0.4433,0.4436,0.4455,0.4459,0.4462,0.4687,0,0.3184,0.3294,0.3376,0.3499,0.3537,0.3633,0.3758,0.3841,0.3884,0.3995,0.4019,0.4143,0.408,0.4191,0.4261,0.4352,0.4456,0.4334,0.4494,0.4497,0.4277,0.4454,0.4125,0.4277,0.471,0.4714,0.4716,0,0.3215,0.3281,0.3401,0.3558,0.3609,0.3746,0.3926,0.4045,0.4192,0.4232,0.4328,0.4345,0.4501,0.4411,0.4594,0.4555,0.461,0.4641,0.4652,0.4354,0.4313,0.4182,0.4302,0.4754,0.4751,0.4749,0.4746,0,0.3164,0.3302,0.3396,0.3449,0.3647,0.3774,0.3958,0.4127,0.4208,0.4436,0.4492,0.4638,0.4759,0.4807,0.4787,0.4775,0.4938,0.493,0.4773,0.476,0.4443,0.4392,0.5042,0.5041,0.5041,0.504,0.504,0,0.3161,0.3241,0.3382,0.3472,0.362,0.3794,0.4001,0.42,0.4408,0.4503,0.4658,0.4711,0.487,0.4918,0.4893,0.4871,0.5029,0.4788,0.48,0.4514,0.4469,0.4816,0.4787,0.5049,0.5047,0.5045,0.5044,0,0.3075,0.3169,0.3293,0.3537,0.3604,0.3747,0.4043,0.4143,0.4422,0.4554,0.464,0.4854,0.4966,0.5004,0.5132,0.5018,0.5003,0.4954,0.4588,0.4546,0.476,0.474,0.4875,0.4869,0.4864,0.4859,0.4856,0,0.3086,0.3105,0.3338,0.3375,0.3512,0.3693,0.3807,0.4132,0.421,0.4536,0.4569,0.48,0.4807,0.4917,0.4851,0.4828,0.4919,0.4485,0.4334,0.4743,0.4744,0.4732,0.4719,0.4069,0.4059,0.4052,0.4045,0,0.305,0.3122,0.3194,0.3298,0.3413,0.3504,0.3723,0.3765,0.4083,0.421,0.4357,0.4424,0.4588,0.4438,0.4461,0.4362,0.4452,0.4316,0.4903,0.4104,0.3985,0.3984,0.3999,0.3974,0.3981,0.3986,0.399,0.3993,0.3006,0.3012,0.308,0.3156,0.325,0.3319,0.3382,0.3501,0.3621,0.3768,0.3945,0.3989,0.4084,0.3951,0.3807,0.3765,0.4053,0.3882,0.3908,0.3942,0.375,0.3621,0.351,0.3514,0.3518,0.3521,0.3524,0,0.2854,0.2849,0.2923,0.2998,0.3025,0.3181,0.3263,0.325,0.3283,0.3395,0.346,0.3189,0.3162,0.3289,0.3132,0.3098,0.309,0.2966,0.2961,0.3033,0.3098,0.2862,0.2388,0.2384,0.2381,0.2377,0,0,0.272,0.2672,0.2716,0.2706,0.2799,0.2804,0.2833,0.2818,0.2863,0.2742,0.2738,0.296,0.317,0.2729,0.2672,0.2525,0.2748,0.2416,0.3335,0.3402,0.3461,0.3639,0.3358,0,0,0,0,0]},{"header":{"parameterUnit":"m.s-1","parameterCategory":2,"la1":30.2991,"la2":30.254,"lo1":-89.0895,"lo2":-89.0444,"dy":0.0017,"dx":0.0017,"nx":28,"ny":28,"refTime":"2024-07-03T09:00:00:Z","depth":"2","parameterNumber":3,"parameterNumberName":"V-component_of_CURRENTS"},"data":[0,0,0,0,0,0,0,0,0,0,0,0,0,0,0,0,0,0,0,0,0,0,0,0,0,0,0,0,0,0,0,0,0,0,0,0,0,0,0,0,0,0,0,0,0,0,0,0,0,0,0,0,0,0,0,0,0,0,0.0015,0.0014,0,-0.0069,-0.0071,-0.0072,-0.0144,-0.0144,-0.0144,-0.0144,-0.0293,-0.0296,-0.03,0,0,0,0,0,0,0,0,0,0,0,0,0,0.0019,0.0019,0.0015,0.0014,0.0014,-0.0069,-0.0071,-0.0072,-0.0144,-0.0144,-0.0144,-0.0145,-0.0291,-0.0296,-0.03,0,0,0,0,0,0,0,0,0,0,0,0,0,-0.0021,0.0019,0.0015,-0.0027,-0.0031,-0.0069,-0.0071,-0.0073,-0.0144,-0.0144,-0.0144,-0.0145,-0.029,-0.0295,-0.0301,-0.0328,0,0,-0.0318,-0.032,0,0,0,0,0,0,0,0,-0.0019,-0.0022,-0.0021,-0.0024,-0.0029,-0.0091,-0.0123,-0.0159,-0.0144,-0.0107,-0.0144,-0.0145,-0.0227,-0.0238,-0.026,-0.0335,-0.0341,-0.0318,-0.0322,-0.0324,-0.0326,0,0,0,0,0,0,0,-0.0016,-0.002,-0.0025,-0.0021,-0.0026,-0.0074,-0.008,-0.0131,-0.017,-0.0111,-0.0115,-0.0114,-0.0231,-0.0255,-0.0265,-0.0344,-0.0318,-0.0323,-0.0327,-0.0329,-0.0449,-0.0449,0,0,0,0,0,0,0.0012,-0.0016,-0.0022,-0.0026,-0.0018,-0.0073,-0.008,-0.0076,-0.0168,-0.018,-0.0114,-0.0117,-0.0245,-0.0258,-0.027,-0.0311,-0.0324,-0.0329,-0.0333,-0.045,-0.0449,-0.0449,0,0,0,0,0,0,0.0013,0.0013,-0.0018,-0.0019,-0.0025,-0.0071,-0.0067,-0.0077,-0.0109,-0.0169,-0.0184,-0.0135,-0.0246,-0.0262,-0.0314,-0.0317,-0.0332,-0.0337,-0.045,-0.045,-0.0449,-0.039,0,0,0,0,0,0,0.0013,0.0013,0.0014,-0.0017,-0.0024,-0.0051,-0.0066,-0.0078,-0.0105,-0.0111,-0.0192,-0.0206,-0.0248,-0.0305,-0.0319,-0.0325,-0.0341,-0.045,-0.045,-0.0449,-0.0392,-0.0388,-0.0384,0,0,0,0,0,0.0013,0.0035,0.0015,0.0014,-0.0017,-0.0051,-0.0062,-0.0099,-0.0105,-0.0129,-0.0168,-0.0204,-0.0313,-0.0309,-0.0326,-0.0333,-0.045,-0.045,-0.0449,-0.0394,-0.0389,-0.0384,0,0,0,0,0,0,0.0038,0.0029,0.0006,0.0023,-0.0021,-0.0061,-0.0063,-0.01,-0.015,-0.0135,-0.0208,-0.0225,-0.0268,-0.0308,-0.0303,-0.0366,-0.0386,-0.0389,-0.0338,-0.0333,-0.0329,-0.0255,-0.0346,0,0,0,0,0,0.0045,0.0058,0.0021,0.0029,0.0022,-0.0026,-0.0045,-0.0067,-0.0105,-0.0127,-0.0189,-0.0236,-0.0279,-0.0311,-0.0355,-0.0397,-0.0406,-0.041,-0.0406,-0.0403,-0.0353,-0.037,-0.0362,-0.0448,-0.0448,-0.0448,0,0,0.0054,0.0056,0.0058,0.0034,0.0013,-0.0004,-0.004,-0.0045,-0.0059,-0.0134,-0.0171,-0.0225,-0.0285,-0.0324,-0.0348,-0.0361,-0.0392,-0.0402,-0.0399,-0.035,-0.0369,-0.036,-0.0352,-0.0448,-0.0448,-0.0448,0,0,0.0095,0.0087,0.0109,0.0079,0.0061,0.0029,0.0025,-0.0021,-0.0038,-0.0082,-0.0127,-0.0166,-0.0262,-0.0289,-0.0317,-0.0314,-0.0365,-0.0355,-0.0283,-0.0302,-0.0294,-0.0287,-0.0318,-0.0315,-0.0359,-0.0358,-0.0358,0,0.0102,0.0114,0.0101,0.0108,0.0084,0.0045,0.0035,0.0021,-0.0044,-0.0045,-0.008,-0.0168,-0.0228,-0.0249,-0.0249,-0.0301,-0.0329,-0.03,-0.0294,-0.0287,-0.0281,-0.0314,-0.0311,-0.0356,-0.0356,-0.0356,-0.0356,0,0.0147,0.014,0.0157,0.0144,0.0118,0.0108,0.0084,0.008,0.0051,0.0019,-0.0005,-0.0075,-0.0118,-0.0164,-0.0207,-0.0203,-0.0245,-0.0283,-0.0299,-0.0268,-0.0307,-0.0304,-0.0351,-0.0352,-0.0353,-0.0354,0,0,0.0182,0.0183,0.0179,0.016,0.013,0.011,0.0136,0.0118,0.0153,0.0093,0.0108,0.0036,0.0013,-0.0015,-0.0083,-0.0105,-0.011,-0.0171,-0.0174,-0.0188,-0.0167,-0.0256,-0.0263,-0.0162,-0.016,-0.0159,-0.0223,0,0.0197,0.0212,0.02,0.0174,0.0167,0.0149,0.0162,0.0162,0.0165,0.0178,0.0149,0.0131,0.0063,0.0047,0.0021,-0.0062,-0.0095,-0.0089,-0.0204,-0.0206,-0.0278,-0.0259,-0.0211,-0.0268,-0.022,-0.022,-0.022,0,0.0218,0.0225,0.0214,0.0189,0.0185,0.0165,0.0193,0.0209,0.0259,0.028,0.0296,0.0261,0.0253,0.0179,0.0096,0.0096,-0.0013,-0.0091,-0.0097,-0.0181,-0.0289,-0.0287,-0.0265,-0.0216,-0.0216,-0.0216,-0.0216,0,0.0203,0.0213,0.0198,0.0182,0.0172,0.0178,0.018,0.0233,0.0283,0.036,0.0407,0.0385,0.041,0.0284,0.0141,0.0117,0.0029,-0.0033,-0.0218,-0.0227,-0.0201,-0.0211,-0.0097,-0.0097,-0.0097,-0.0097,-0.0097,0,0.0185,0.0165,0.0199,0.016,0.018,0.0186,0.0219,0.0267,0.0362,0.044,0.0455,0.05,0.0443,0.0375,0.0193,0.0012,0.0069,-0.0176,-0.0236,-0.0187,-0.0194,-0.0153,-0.0159,-0.0099,-0.0099,-0.0098,-0.0098,0,0.0137,0.0153,0.0128,0.0135,0.0151,0.0165,0.0223,0.0302,0.0393,0.0514,0.0549,0.0627,0.058,0.0456,0.0294,0.0109,-0.0093,-0.0193,-0.0135,-0.0188,-0.0352,-0.0354,-0.0376,-0.038,-0.0383,-0.0385,-0.0387,0,0.0081,0.0086,0.0093,0.0129,0.0121,0.0167,0.0232,0.031,0.0418,0.0558,0.063,0.0662,0.0735,0.048,0.0184,-0.0091,-0.0138,-0.0302,-0.0338,-0.0317,-0.0374,-0.0371,-0.037,-0.0292,-0.0293,-0.0294,-0.0295,0,0.0012,0.0035,0.0053,0.0126,0.0176,0.0247,0.034,0.0436,0.0583,0.0758,0.096,0.103,0.0795,0.0599,0.019,-0.0048,-0.0246,-0.0335,-0.0294,-0.0246,-0.0247,-0.0301,-0.0299,-0.0302,-0.0302,-0.0301,-0.0301,-0.03,-0.0014,0.0017,0.009,0.0174,0.0254,0.0395,0.0499,0.0691,0.0937,0.1242,0.1188,0.1339,0.0967,0.054,0.0119,-0.0313,-0.0307,-0.0458,-0.045,-0.0442,-0.0439,-0.0447,-0.0538,-0.0539,-0.0539,-0.054,-0.054,0,0.0012,0.0089,0.0155,0.0292,0.0439,0.0434,0.0649,0.0859,0.1243,0.144,0.1665,0.1367,0.1069,0.0625,-0.0011,-0.0425,-0.0421,-0.0554,-0.0442,-0.0433,-0.0425,-0.0416,-0.0512,-0.0513,-0.0514,-0.0514,0,0,0.0051,0.0166,0.0229,0.0485,0.0579,0.08,0.0947,0.1295,0.1516,0.1816,0.1887,0.1819,0.1244,0.0782,0.0228,-0.012,-0.0175,-0.0196,-0.0178,0.0029,0.0043,-0.0339,-0.0313,0,0,0,0,0]}],[{"header":{"parameterUnit":"m.s-1","parameterCategory":2,"la1":30.2991,"la2":30.254,"lo1":-89.0895,"lo2":-89.0444,"dy":0.0017,"dx":0.0017,"nx":28,"ny":28,"refTime":"2024-07-03T09:00:00:Z","depth":"4","parameterNumber":2,"parameterNumberName":"U-component_of_CURRENTS"},"data":[0,0,0,0,0,0,0,0,0,0,0,0,0,0,0,0,0,0,0,0,0,0,0,0,0,0,0,0,0,0,0,0,0,0,0,0,0,0,0,0,0,0,0,0,0,0,0,0,0,0,0,0,0,0,0,0,0,0,0.1418,0.1418,0,0.1483,0.1484,0.1485,0.154,0.1541,0.1541,0.1542,0.1672,0.1675,0.1678,0,0,0,0,0,0,0,0,0,0,0,0,0,0.1418,0.1417,0.1417,0.1418,0.1419,0.1483,0.1484,0.1485,0.154,0.1541,0.1541,0.1542,0.1671,0.1675,0.1678,0,0,0,0,0,0,0,0,0,0,0,0,0,0.1445,0.1417,0.1417,0.1453,0.1457,0.1483,0.1484,0.1485,0.154,0.1541,0.1542,0.1542,0.167,0.1674,0.1679,0.1693,0,0,0.1693,0.1695,0,0,0,0,0,0,0,0,0.1443,0.1445,0.1447,0.145,0.1455,0.1503,0.1532,0.1557,0.154,0.151,0.1542,0.1543,0.162,0.1629,0.1641,0.1699,0.1705,0.1693,0.1696,0.1698,0.1699,0,0,0,0,0,0,0,0.1441,0.1443,0.1445,0.1448,0.1452,0.1492,0.1496,0.1537,0.1563,0.1513,0.1517,0.1521,0.1623,0.1636,0.1645,0.1707,0.1693,0.1697,0.17,0.1702,0.1851,0.1852,0,0,0,0,0,0,0.1425,0.1441,0.1443,0.1447,0.1449,0.1491,0.1496,0.1488,0.1561,0.1572,0.152,0.1523,0.1628,0.1639,0.1649,0.1746,0.1698,0.1702,0.1705,0.185,0.1851,0.1852,0,0,0,0,0,0,0.1424,0.1424,0.144,0.1445,0.145,0.1489,0.1481,0.1489,0.1534,0.1566,0.1578,0.156,0.1629,0.1643,0.1715,0.1749,0.1704,0.1708,0.1848,0.185,0.1852,0.1892,0,0,0,0,0,0,0.1424,0.1423,0.1433,0.1443,0.1449,0.1468,0.148,0.149,0.1533,0.1538,0.1604,0.1615,0.1631,0.1708,0.1719,0.1755,0.1712,0.1847,0.1849,0.1851,0.1889,0.1895,0.19,0,0,0,0,0,0.1423,0.1435,0.1432,0.1434,0.1453,0.1468,0.1475,0.1508,0.1534,0.1552,0.1606,0.1614,0.173,0.1713,0.1726,0.1763,0.1845,0.1848,0.1851,0.1887,0.1894,0.19,0,0,0,0,0,0,0.1449,0.1442,0.1439,0.145,0.146,0.1477,0.1514,0.1526,0.1582,0.1614,0.1638,0.1652,0.1724,0.1738,0.1718,0.1811,0.1786,0.1792,0.1809,0.1816,0.1822,0.187,0.1716,0,0,0,0,0,0.1452,0.1459,0.1453,0.1467,0.1479,0.1501,0.1522,0.1543,0.1581,0.1609,0.1643,0.1694,0.1739,0.1775,0.1811,0.187,0.1906,0.1899,0.1905,0.1909,0.1957,0.2037,0.2055,0.1861,0.1861,0.1861,0,0,0.1463,0.1466,0.1469,0.1474,0.1498,0.15,0.1518,0.1566,0.1592,0.1616,0.1685,0.1719,0.1759,0.182,0.1854,0.1843,0.1974,0.1913,0.1917,0.1963,0.2042,0.2062,0.2079,0.1863,0.1863,0.1862,0,0,0.1482,0.1498,0.1504,0.1507,0.1539,0.1547,0.1562,0.1591,0.1642,0.1697,0.1724,0.1789,0.1842,0.1885,0.1912,0.1974,0.1998,0.1973,0.2051,0.2127,0.2144,0.216,0.2193,0.2212,0.1979,0.1979,0.1979,0,0.1491,0.1486,0.1512,0.1513,0.1519,0.1562,0.1563,0.1618,0.1668,0.1731,0.1728,0.1855,0.1878,0.1979,0.2,0.1991,0.2028,0.2019,0.2137,0.2153,0.2169,0.2199,0.2219,0.1982,0.1981,0.1981,0.1981,0,0.1483,0.1494,0.151,0.1508,0.1527,0.1546,0.1594,0.1659,0.1718,0.1769,0.1898,0.1944,0.2027,0.2029,0.2042,0.2164,0.215,0.213,0.2123,0.2192,0.2217,0.2238,0.1985,0.1984,0.1983,0.1983,0,0,0.1426,0.1485,0.1483,0.1497,0.1524,0.1539,0.1622,0.1701,0.1785,0.1872,0.1974,0.2075,0.2139,0.2176,0.2201,0.2273,0.2388,0.2265,0.2268,0.2303,0.2546,0.2367,0.2371,0.2397,0.2402,0.2406,0.2506,0,0.1396,0.1406,0.1438,0.1454,0.1462,0.1536,0.1601,0.1704,0.1805,0.1918,0.2052,0.215,0.2184,0.2233,0.2326,0.2379,0.2452,0.2363,0.2472,0.2475,0.2313,0.2393,0.2421,0.2521,0.2526,0.2529,0.2531,0,0.1335,0.1361,0.1372,0.145,0.1463,0.149,0.162,0.1693,0.1887,0.1984,0.2146,0.2229,0.2397,0.2377,0.258,0.2529,0.2566,0.2592,0.2595,0.2444,0.2336,0.2448,0.2568,0.2566,0.2563,0.256,0.2558,0,0.1252,0.1304,0.1323,0.1332,0.1425,0.149,0.1563,0.1731,0.1827,0.2047,0.2136,0.2339,0.2442,0.2566,0.2658,0.2638,0.2828,0.2787,0.2661,0.2647,0.276,0.2742,0.2924,0.2923,0.2923,0.2923,0.2923,0,0.1162,0.1178,0.1307,0.1302,0.1373,0.1467,0.1578,0.1698,0.1872,0.1994,0.2188,0.2298,0.2503,0.2625,0.2696,0.2751,0.2873,0.2712,0.2681,0.2765,0.2747,0.2771,0.2752,0.2927,0.2926,0.2925,0.2924,0,0.1043,0.1116,0.1153,0.1278,0.1332,0.1392,0.1562,0.1641,0.1843,0.2002,0.2077,0.2305,0.2486,0.2633,0.2798,0.2769,0.2834,0.2807,0.2882,0.2847,0.2591,0.2573,0.2699,0.2694,0.269,0.2686,0.2683,0,0.0971,0.0985,0.1118,0.1157,0.1218,0.1339,0.1416,0.1612,0.1699,0.1991,0.2043,0.227,0.2419,0.2529,0.2679,0.2794,0.2768,0.2761,0.2704,0.2621,0.2579,0.2568,0.2556,0.2676,0.2675,0.2674,0.2673,0,0.0843,0.0913,0.0949,0.104,0.1124,0.1205,0.1341,0.1394,0.1637,0.1823,0.1993,0.2122,0.2299,0.244,0.2529,0.2605,0.2753,0.2717,0.2726,0.2672,0.2595,0.2555,0.2548,0.2658,0.266,0.2662,0.2662,0,0.0754,0.0763,0.084,0.0911,0.0994,0.105,0.1151,0.1284,0.1406,0.1739,0.1781,0.2061,0.2259,0.2341,0.2433,0.249,0.2476,0.2401,0.2426,0.2444,0.2319,0.218,0.2124,0,0,0,0,0,0.0662,0.067,0.071,0.0778,0.0846,0.0913,0.1079,0.1193,0.1439,0.1511,0.1653,0.1825,0.201,0.2133,0.2152,0.2317,0.2462,0.2325,0.2379,0.2576,0.2593,0.2471,0,0,0,0,0,0,0.0604,0.0631,0.0662,0.0649,0.0671,0.0749,0.0854,0.1028,0.1095,0.1361,0.1474,0.1684,0.1884,0.1976,0.2102,0.2143,0.2137,0.249,0.2485,0.2566,0.2582,0.2596,0.2476,0,0,0,0,0]},{"header":{"parameterUnit":"m.s-1","parameterCategory":2,"la1":30.2991,"la2":30.254,"lo1":-89.0895,"lo2":-89.0444,"dy":0.0017,"dx":0.0017,"nx":28,"ny":28,"refTime":"2024-07-03T09:00:00:Z","depth":"4","parameterNumber":3,"parameterNumberName":"V-component_of_CURRENTS"},"data":[0,0,0,0,0,0,0,0,0,0,0,0,0,0,0,0,0,0,0,0,0,0,0,0,0,0,0,0,0,0,0,0,0,0,0,0,0,0,0,0,0,0,0,0,0,0,0,0,0,0,0,0,0,0,0,0,0,0,0.0171,0.0172,0,0.0141,0.014,0.0139,0.0094,0.0094,0.0094,0.0094,-0.0011,-0.0014,-0.0017,0,0,0,0,0,0,0,0,0,0,0,0,0,0.0101,0.0103,0.0171,0.0172,0.0172,0.0141,0.014,0.0139,0.0094,0.0094,0.0094,0.0094,-0.001,-0.0014,-0.0017,0,0,0,0,0,0,0,0,0,0,0,0,0,0.01,0.0103,0.0171,0.0152,0.015,0.0141,0.014,0.0138,0.0094,0.0094,0.0094,0.0094,-0.0009,-0.0013,-0.0017,-0.0041,0,0,-0.003,-0.0032,0,0,0,0,0,0,0,0,0.01,0.0102,0.0154,0.0153,0.0152,0.0128,0.0077,0.0077,0.0094,0.0107,0.0094,0.0094,0.0034,0.0026,0.001,-0.0046,-0.0051,-0.003,-0.0033,-0.0035,-0.0036,0,0,0,0,0,0,0,0.0101,0.0102,0.0151,0.0155,0.0153,0.0115,0.0114,0.0076,0.0064,0.0106,0.0105,0.0114,0.0031,0.0014,0.0007,-0.0052,-0.003,-0.0034,-0.0037,-0.0038,-0.0132,-0.0132,0,0,0,0,0,0,0.0125,0.0103,0.0152,0.0151,0.0134,0.0117,0.0116,0.0129,0.0066,0.0059,0.0114,0.0112,0.0021,0.0012,0.0003,-0.0017,-0.0035,-0.0039,-0.0041,-0.0132,-0.0132,-0.0132,0,0,0,0,0,0,0.0124,0.013,0.0154,0.0132,0.0133,0.012,0.0134,0.0129,0.0123,0.0074,0.0064,0.0115,0.0021,0.0009,-0.0021,-0.0022,-0.004,-0.0044,-0.0132,-0.0132,-0.0132,-0.0065,0,0,0,0,0,0,0.0122,0.013,0.014,0.0134,0.0136,0.0157,0.0135,0.0129,0.0132,0.0129,0.0072,0.0061,0.002,-0.0014,-0.0025,-0.0028,-0.0047,-0.0132,-0.0132,-0.0132,-0.0067,-0.0063,-0.0059,0,0,0,0,0,0.012,0.0142,0.0141,0.0147,0.0154,0.0158,0.0154,0.0138,0.0132,0.013,0.0095,0.0063,-0.0022,-0.0017,-0.003,-0.0034,-0.0132,-0.0132,-0.0132,-0.0069,-0.0064,-0.0059,0,0,0,0,0,0,0.0115,0.0141,0.0138,0.0167,0.0167,0.0154,0.0155,0.0148,0.0119,0.0114,0.0065,0.0052,0.0025,-0.0012,-0.0005,-0.0062,-0.0083,-0.0086,-0.0032,-0.0027,-0.0023,-0.0032,-0.0051,0,0,0,0,0,0.0123,0.0146,0.0156,0.0176,0.0181,0.0169,0.0169,0.016,0.0141,0.0129,0.0093,0.005,0.0012,-0.001,-0.005,-0.0079,-0.0134,-0.0092,-0.0087,-0.0083,-0.01,-0.0172,-0.0176,-0.0132,-0.0132,-0.0132,0,0,0.0126,0.0145,0.0156,0.0177,0.0173,0.0187,0.0166,0.0173,0.0175,0.0121,0.0105,0.0065,0.001,-0.0023,-0.0039,-0.0053,-0.0123,-0.0083,-0.008,-0.0099,-0.0172,-0.0177,-0.018,-0.0132,-0.0132,-0.0132,0,0,0.0152,0.0162,0.019,0.0193,0.0205,0.0202,0.0212,0.0204,0.0188,0.0172,0.0133,0.0094,0.0043,-0.0003,-0.0031,-0.003,-0.0094,-0.0038,-0.0031,-0.0099,-0.0103,-0.0108,-0.0173,-0.0184,-0.004,-0.004,-0.004,0,0.0156,0.0197,0.0195,0.0219,0.0234,0.0217,0.0245,0.0224,0.0205,0.0182,0.0176,0.0083,0.0046,-0.0009,-0.0007,-0.0022,-0.0072,-0.004,-0.0094,-0.01,-0.0106,-0.0172,-0.0185,-0.0037,-0.0037,-0.0038,-0.0038,0,0.0202,0.0229,0.0245,0.0276,0.0283,0.0304,0.0292,0.028,0.0265,0.023,0.0175,0.0117,0.0056,0.0045,0.0019,-0.004,-0.0065,-0.0074,-0.0104,-0.0106,-0.0175,-0.019,-0.0032,-0.0033,-0.0034,-0.0035,0,0,0.0239,0.0275,0.0281,0.0304,0.0319,0.0334,0.0331,0.0317,0.0307,0.0249,0.0213,0.0144,0.0094,0.0058,0.0016,-0.0044,-0.0114,-0.0074,-0.0079,-0.0135,-0.0271,-0.023,-0.0242,-0.0133,-0.0135,-0.0137,-0.0298,0,0.0281,0.0344,0.0349,0.0398,0.043,0.0409,0.0414,0.0385,0.0344,0.0294,0.0195,0.0151,0.0104,0.0084,0.0008,-0.0081,-0.0153,-0.0071,-0.0265,-0.0272,-0.0232,-0.0258,-0.0145,-0.031,-0.0313,-0.0316,-0.0318,0,0.0334,0.0371,0.0435,0.047,0.0482,0.0507,0.0508,0.0506,0.0414,0.0372,0.0275,0.0194,0.0084,0.0061,-0.0134,-0.008,-0.0177,-0.0251,-0.0259,-0.0259,-0.0258,-0.0313,-0.0345,-0.0343,-0.0341,-0.0339,-0.0338,0,0.0379,0.0433,0.0492,0.0504,0.0535,0.0555,0.0576,0.0527,0.0523,0.0418,0.0392,0.0223,0.0163,-0.0,-0.0163,-0.0153,-0.0376,-0.0378,-0.0444,-0.0443,-0.0461,-0.0455,-0.0525,-0.0525,-0.0525,-0.0524,-0.0524,0,0.0433,0.0477,0.0521,0.055,0.0622,0.0618,0.0666,0.0644,0.0597,0.0586,0.0442,0.0389,0.0147,-0.0011,-0.0172,-0.0356,-0.0391,-0.0461,-0.0487,-0.0427,-0.0415,-0.0471,-0.0463,-0.053,-0.0529,-0.0528,-0.0527,0,0.0477,0.0501,0.057,0.0622,0.0649,0.0702,0.0763,0.078,0.0735,0.0714,0.0687,0.0495,0.0297,0.0056,-0.0212,-0.0334,-0.0525,-0.058,-0.0506,-0.0522,-0.055,-0.0537,-0.0682,-0.0682,-0.0682,-0.0682,-0.0682,0,0.0511,0.0552,0.0636,0.0685,0.072,0.0799,0.0856,0.0853,0.0865,0.0786,0.0769,0.0575,0.043,0.0068,-0.0183,-0.0509,-0.0537,-0.0643,-0.0602,-0.0559,-0.057,-0.0556,-0.0542,-0.0682,-0.0682,-0.0682,-0.0682,0,0.0569,0.0597,0.0647,0.0757,0.0836,0.0921,0.0993,0.1009,0.0992,0.0958,0.0835,0.0628,0.04,0.0089,-0.0163,-0.0391,-0.0581,-0.0643,-0.0645,-0.0607,-0.0561,-0.0568,-0.0555,-0.0682,-0.0682,-0.0682,-0.0682,0,0.0607,0.0654,0.072,0.0813,0.0914,0.0996,0.104,0.1051,0.1058,0.0966,0.0922,0.0664,0.0496,0.015,-0.0085,-0.0307,-0.0355,-0.0414,-0.0428,-0.0431,-0.0301,-0.0202,-0.0249,0,0,0,0,0,0.0636,0.068,0.0772,0.0863,0.0964,0.1024,0.11,0.1122,0.1113,0.1048,0.0984,0.0772,0.0411,0.0233,0.002,-0.0085,-0.0396,-0.0341,-0.0471,-0.0682,-0.0682,-0.0567,0,0,0,0,0,0,0.0648,0.0725,0.0766,0.0882,0.0953,0.1068,0.1121,0.1124,0.1076,0.1028,0.0832,0.0735,0.0373,0.0533,0.0017,-0.0053,-0.0159,-0.0516,-0.052,-0.0682,-0.0682,-0.0682,-0.0564,0,0,0,0,0]}]]